| time (UTC) | temp F | wind direction | speed MPH | gust MPH | rain 1hr in | rain 24hr in | rain mn in | humidity % | barometer mb |
| 20260505121908 | 55 | 211 | 0.0 | 0.0 | 0.00 | 0.00 | 0.00 | 38 | |
| 20260505121754 | 55 | 181 | 0.0 | 0.0 | 0.00 | 0.00 | 0.00 | 38 | |
| 20260505121408 | 55 | 181 | 0.0 | 0.0 | 0.00 | 0.00 | 0.00 | 38 | |
| 20260505121345 | 55 | 183 | 0.0 | 0.0 | 0.00 | 0.00 | 0.00 | 38 | |
| 20260505120908 | 55 | 183 | 0.0 | 0.0 | 0.00 | 0.00 | 0.00 | 38 | |
| 20260505120704 | 55 | 237 | 0.0 | 0.0 | 0.00 | 0.00 | 0.00 | 38 | |
| 20260505120408 | 55 | 237 | 0.0 | 0.0 | 0.00 | 0.00 | 0.00 | 38 | |
| 20260505120251 | 55 | 22 | 0.0 | 0.0 | 0.00 | 0.00 | 0.00 | 37 | |
| 20260505115908 | 55 | 22 | 0.0 | 0.0 | 0.00 | 0.00 | 0.00 | 37 | |
| 20260505115658 | 55 | 37 | 0.0 | 0.0 | 0.00 | 0.00 | 0.00 | 37 | |
| 20260505115511 | 55 | 298 | 0.0 | 0.0 | 0.00 | 0.00 | 0.00 | 38 | |
| 20260505115408 | 55 | 37 | 0.0 | 0.0 | 0.00 | 0.00 | 0.00 | 37 | |
| 20260505114909 | 55 | 298 | 0.0 | 0.0 | 0.00 | 0.00 | 0.00 | 38 | |
| 20260505114802 | 55 | 45 | 0.0 | 0.0 | 0.00 | 0.00 | 0.00 | 37 | |
| 20260505114409 | 55 | 45 | 0.0 | 0.0 | 0.00 | 0.00 | 0.00 | 37 | |
| 20260505114256 | 55 | 60 | 0.0 | 0.0 | 0.00 | 0.00 | 0.00 | 37 | |
| 20260505113910 | 55 | 60 | 0.0 | 0.0 | 0.00 | 0.00 | 0.00 | 37 | |
| 20260505113637 | 55 | 202 | 0.0 | 0.0 | 0.00 | 0.00 | 0.00 | 38 | |
| 20260505113408 | 55 | 202 | 0.0 | 0.0 | 0.00 | 0.00 | 0.00 | 38 | |
| 20260505113239 | 55 | 160 | 0.0 | 0.0 | 0.00 | 0.00 | 0.00 | 38 | |
| 20260505112908 | 55 | 160 | 0.0 | 0.0 | 0.00 | 0.00 | 0.00 | 38 | |
| 20260505112731 | 55 | 300 | 0.0 | 0.0 | 0.00 | 0.00 | 0.00 | 38 | |
| 20260505112408 | 55 | 300 | 0.0 | 0.0 | 0.00 | 0.00 | 0.00 | 38 | |
| 20260505112328 | 55 | 97 | 0.0 | 0.0 | 0.00 | 0.00 | 0.00 | 39 | |
| 20260505111908 | 55 | 97 | 0.0 | 0.0 | 0.00 | 0.00 | 0.00 | 39 | |
| 20260505111755 | 55 | 256 | 0.0 | 0.0 | 0.00 | 0.00 | 0.00 | 38 | |
| 20260505111408 | 55 | 256 | 0.0 | 0.0 | 0.00 | 0.00 | 0.00 | 38 | |
| 20260505111321 | 55 | 85 | 0.0 | 0.0 | 0.00 | 0.00 | 0.00 | 39 | |
| 20260505110908 | 55 | 85 | 0.0 | 0.0 | 0.00 | 0.00 | 0.00 | 39 | |
| 20260505110707 | 55 | 193 | 0.0 | 0.0 | 0.00 | 0.00 | 0.00 | 38 | |
| 20260505110408 | 55 | 193 | 0.0 | 0.0 | 0.00 | 0.00 | 0.00 | 38 | |
| 20260505110247 | 55 | 354 | 0.0 | 0.0 | 0.00 | 0.00 | 0.00 | 37 | |
| 20260505101908 | 55 | 353 | 0.0 | 2.0 | 0.00 | 0.00 | 0.00 | 37 | |
| 20260505101854 | 55 | 8 | 0.0 | 2.0 | 0.00 | 0.00 | 0.00 | 37 | |
| 20260505101408 | 55 | 8 | 0.0 | 2.0 | 0.00 | 0.00 | 0.00 | 37 | |
| 20260505101327 | 55 | 2 | 0.0 | 0.0 | 0.00 | 0.00 | 0.00 | 37 | |
| 20260505100909 | 55 | 2 | 0.0 | 0.0 | 0.00 | 0.00 | 0.00 | 37 | |
| 20260505100720 | 55 | 15 | 0.0 | 0.0 | 0.00 | 0.00 | 0.00 | 37 | |
| 20260505100408 | 55 | 15 | 0.0 | 0.0 | 0.00 | 0.00 | 0.00 | 37 | |
| 20260505100221 | 55 | 68 | 0.0 | 1.0 | 0.00 | 0.00 | 0.00 | 38 | |
| 20260505095908 | 55 | 68 | 0.0 | 1.0 | 0.00 | 0.00 | 0.00 | 38 | |
| 20260505095747 | 55 | 174 | 0.0 | 6.0 | 0.00 | 0.00 | 0.00 | 38 | |
| 20260505095422 | 55 | 196 | 2.0 | 6.0 | 0.00 | 0.00 | 0.00 | 39 | |
| 20260505095408 | 55 | 174 | 0.0 | 6.0 | 0.00 | 0.00 | 0.00 | 38 | |
| 20260505094908 | 55 | 196 | 2.0 | 6.0 | 0.00 | 0.00 | 0.00 | 39 | |
| 20260505094714 | 55 | 181 | 1.0 | 6.0 | 0.00 | 0.00 | 0.00 | 40 | |
| 20260505094408 | 55 | 181 | 1.0 | 6.0 | 0.00 | 0.00 | 0.00 | 40 | |
| 20260505094257 | 55 | 187 | 2.0 | 6.0 | 0.00 | 0.00 | 0.00 | 40 | |
| 20260505093908 | 55 | 187 | 2.0 | 6.0 | 0.00 | 0.00 | 0.00 | 40 | |
| 20260505093624 | 55 | 182 | 1.0 | 6.0 | 0.00 | 0.00 | 0.00 | 40 | |
| 20260505093408 | 55 | 182 | 1.0 | 6.0 | 0.00 | 0.00 | 0.00 | 40 | |
| 20260505093238 | 55 | 173 | 2.0 | 6.0 | 0.00 | 0.00 | 0.00 | 40 | |
| 20260505092909 | 55 | 173 | 2.0 | 6.0 | 0.00 | 0.00 | 0.00 | 40 | |
| 20260505092727 | 55 | 188 | 2.0 | 5.0 | 0.00 | 0.00 | 0.00 | 41 | |
| 20260505092408 | 55 | 188 | 2.0 | 5.0 | 0.00 | 0.00 | 0.00 | 41 | |
| 20260505092239 | 55 | 147 | 1.0 | 6.0 | 0.00 | 0.00 | 0.00 | 43 | |
| 20260505091908 | 55 | 147 | 1.0 | 6.0 | 0.00 | 0.00 | 0.00 | 43 | |
| 20260505091657 | 55 | 141 | 1.0 | 6.0 | 0.00 | 0.00 | 0.00 | 43 | |
| 20260505091411 | 55 | 141 | 1.0 | 6.0 | 0.00 | 0.00 | 0.00 | 43 | |
| 20260505091327 | 55 | 146 | 1.0 | 5.0 | 0.00 | 0.00 | 0.00 | 42 | |
| 20260505090909 | 55 | 146 | 1.0 | 5.0 | 0.00 | 0.00 | 0.00 | 42 | |
| 20260505090613 | 55 | 143 | 1.0 | 6.0 | 0.00 | 0.00 | 0.00 | 42 | |
| 20260505090408 | 55 | 143 | 1.0 | 6.0 | 0.00 | 0.00 | 0.00 | 42 | |
| 20260505090242 | 55 | 144 | 1.0 | 6.0 | 0.00 | 0.00 | 0.00 | 42 | |
| 20260505085911 | 55 | 144 | 1.0 | 6.0 | 0.00 | 0.00 | 0.00 | 42 | |
| 20260505085737 | 55 | 131 | 0.0 | 4.0 | 0.00 | 0.00 | 0.00 | 43 | |
| 20260505085408 | 55 | 131 | 0.0 | 4.0 | 0.00 | 0.00 | 0.00 | 43 | |
| 20260505085312 | 55 | 125 | 0.0 | 4.0 | 0.00 | 0.00 | 0.00 | 42 | |
| 20260505084908 | 55 | 125 | 0.0 | 4.0 | 0.00 | 0.00 | 0.00 | 42 | |
| 20260505084250 | 55 | 144 | 0.0 | 4.0 | 0.00 | 0.00 | 0.00 | 41 | |
| 20260505083909 | 55 | 144 | 0.0 | 4.0 | 0.00 | 0.00 | 0.00 | 41 | |
| 20260505083745 | 55 | 153 | 0.0 | 3.0 | 0.00 | 0.00 | 0.00 | 39 | |
| 20260505083408 | 55 | 153 | 0.0 | 3.0 | 0.00 | 0.00 | 0.00 | 39 | |
| 20260505083239 | 55 | 125 | 0.0 | 0.0 | 0.00 | 0.00 | 0.00 | 39 | |
| 20260505082908 | 55 | 125 | 0.0 | 0.0 | 0.00 | 0.00 | 0.00 | 39 | |
| 20260505082755 | 55 | 102 | 0.0 | 0.0 | 0.00 | 0.00 | 0.00 | 40 | |
| 20260505082408 | 55 | 102 | 0.0 | 0.0 | 0.00 | 0.00 | 0.00 | 40 | |
| 20260505082311 | 55 | 100 | 0.0 | 0.0 | 0.00 | 0.00 | 0.00 | 41 | |
| 20260505081908 | 55 | 100 | 0.0 | 0.0 | 0.00 | 0.00 | 0.00 | 41 | |
| 20260505081756 | 55 | 107 | 0.0 | 0.0 | 0.00 | 0.00 | 0.00 | 40 | |
| 20260505081408 | 55 | 107 | 0.0 | 0.0 | 0.00 | 0.00 | 0.00 | 40 | |
| 20260505081257 | 55 | 121 | 0.0 | 0.0 | 0.00 | 0.00 | 0.00 | 40 | |
| 20260505080909 | 55 | 121 | 0.0 | 0.0 | 0.00 | 0.00 | 0.00 | 40 | |
| 20260505080700 | 55 | 98 | 0.0 | 0.0 | 0.00 | 0.00 | 0.00 | 39 | |
| 20260505080409 | 55 | 98 | 0.0 | 0.0 | 0.00 | 0.00 | 0.00 | 39 | |
| 20260505080302 | 55 | 106 | 0.0 | 0.0 | 0.00 | 0.00 | 0.00 | 38 | |
| 20260505075908 | 55 | 106 | 0.0 | 0.0 | 0.00 | 0.00 | 0.00 | 38 | |
| 20260505075731 | 55 | 82 | 0.0 | 0.0 | 0.00 | 0.00 | 0.00 | 37 | |
| 20260505075410 | 55 | 82 | 0.0 | 0.0 | 0.00 | 0.00 | 0.00 | 37 | |
| 20260505075149 | 55 | 90 | 0.0 | 0.0 | 0.00 | 0.00 | 0.00 | 37 | |
| 20260505074908 | 55 | 90 | 0.0 | 0.0 | 0.00 | 0.00 | 0.00 | 37 | |
| 20260505074756 | 55 | 161 | 0.0 | 0.0 | 0.00 | 0.00 | 0.00 | 36 | |
| 20260505074408 | 55 | 161 | 0.0 | 0.0 | 0.00 | 0.00 | 0.00 | 36 | |
| 20260505074258 | 55 | 171 | 0.0 | 0.0 | 0.00 | 0.00 | 0.00 | 37 | |
| 20260505073908 | 55 | 171 | 0.0 | 0.0 | 0.00 | 0.00 | 0.00 | 37 | |
| 20260505073704 | 55 | 132 | 0.0 | 0.0 | 0.00 | 0.00 | 0.00 | 37 | |
| 20260505073408 | 55 | 132 | 0.0 | 0.0 | 0.00 | 0.00 | 0.00 | 37 | |
| 20260505073242 | 55 | 123 | 0.0 | 0.0 | 0.00 | 0.00 | 0.00 | 38 | |
| 20260505072908 | 55 | 123 | 0.0 | 0.0 | 0.00 | 0.00 | 0.00 | 38 | |
| 20260505072655 | 55 | 92 | 0.0 | 0.0 | 0.00 | 0.00 | 0.00 | 38 | |
| 20260505072408 | 55 | 92 | 0.0 | 0.0 | 0.00 | 0.00 | 0.00 | 38 | |
| 20260505072225 | 55 | 67 | 0.0 | 0.0 | 0.00 | 0.00 | 0.00 | 37 | |
| 20260505071908 | 55 | 67 | 0.0 | 0.0 | 0.00 | 0.00 | 0.00 | 37 | |
| 20260505071724 | 55 | 116 | 0.0 | 0.0 | 0.00 | 0.00 | 0.00 | 38 | |
| 20260505071409 | 55 | 116 | 0.0 | 0.0 | 0.00 | 0.00 | 0.00 | 38 | |
| 20260505071256 | 55 | 147 | 0.0 | 0.0 | 0.00 | 0.00 | 0.00 | 38 | |
| 20260505070909 | 55 | 147 | 0.0 | 0.0 | 0.00 | 0.00 | 0.00 | 38 | |
| 20260505070630 | 55 | 119 | 0.0 | 0.0 | 0.00 | 0.00 | 0.00 | 39 | |
| 20260505070408 | 55 | 119 | 0.0 | 0.0 | 0.00 | 0.00 | 0.00 | 39 | |
| 20260505070159 | 55 | 106 | 0.0 | 0.0 | 0.00 | 0.00 | 0.00 | 40 | |
| 20260505065911 | 55 | 106 | 0.0 | 0.0 | 0.00 | 0.00 | 0.00 | 40 | |
| 20260505065758 | 55 | 80 | 0.0 | 0.0 | 0.00 | 0.00 | 0.00 | 38 | |
| 20260505065412 | 55 | 80 | 0.0 | 0.0 | 0.00 | 0.00 | 0.00 | 38 | |
| 20260505064908 | 55 | 68 | 0.0 | 0.0 | 0.00 | 0.00 | 0.00 | 36 | |
| 20260505064743 | 55 | 47 | 0.0 | 0.0 | 0.00 | 0.00 | 0.00 | 36 | |
| 20260505064408 | 55 | 47 | 0.0 | 0.0 | 0.00 | 0.00 | 0.00 | 36 | |
| 20260505064236 | 55 | 64 | 0.0 | 0.0 | 0.00 | 0.00 | 0.00 | 37 | |
| 20260505063909 | 55 | 64 | 0.0 | 0.0 | 0.00 | 0.00 | 0.00 | 37 | |
| 20260505063720 | 55 | 130 | 0.0 | 0.0 | 0.00 | 0.00 | 0.00 | 37 | |
| 20260505063409 | 55 | 130 | 0.0 | 0.0 | 0.00 | 0.00 | 0.00 | 37 | |
| 20260505063256 | 55 | 61 | 0.0 | 0.0 | 0.00 | 0.00 | 0.00 | 36 | |
| 20260505062909 | 55 | 61 | 0.0 | 0.0 | 0.00 | 0.00 | 0.00 | 36 | |
| 20260505062749 | 55 | 45 | 0.0 | 0.0 | 0.00 | 0.00 | 0.00 | 37 | |
| 20260505062409 | 55 | 45 | 0.0 | 0.0 | 0.00 | 0.00 | 0.00 | 37 | |
| 20260505062256 | 55 | 24 | 0.0 | 0.0 | 0.00 | 0.00 | 0.00 | 36 | |
| 20260505061908 | 55 | 24 | 0.0 | 0.0 | 0.00 | 0.00 | 0.00 | 36 | |
| 20260505061818 | 55 | 40 | 0.0 | 0.0 | 0.00 | 0.00 | 0.00 | 36 | |
| 20260505061409 | 55 | 40 | 0.0 | 0.0 | 0.00 | 0.00 | 0.00 | 36 | |
| 20260505061351 | 55 | 64 | 0.0 | 0.0 | 0.00 | 0.00 | 0.00 | 36 | |
| 20260505060909 | 55 | 64 | 0.0 | 0.0 | 0.00 | 0.00 | 0.00 | 36 | |
| 20260505060756 | 55 | 45 | 0.0 | 0.0 | 0.00 | 0.00 | 0.00 | 36 | |
| 20260505060409 | 55 | 45 | 0.0 | 0.0 | 0.00 | 0.00 | 0.00 | 36 | |
| 20260505060255 | 55 | 84 | 0.0 | 0.0 | 0.00 | 0.00 | 0.00 | 36 | |
| 20260505055909 | 55 | 84 | 0.0 | 0.0 | 0.00 | 0.00 | 0.00 | 36 | |
| 20260505055409 | 55 | 88 | 0.0 | 0.0 | 0.00 | 0.00 | 0.00 | 37 | |
| 20260505055227 | 55 | 76 | 0.0 | 0.0 | 0.00 | 0.00 | 0.00 | 37 | |
| 20260505054909 | 55 | 76 | 0.0 | 0.0 | 0.00 | 0.00 | 0.00 | 37 | |
| 20260505054656 | 55 | 72 | 0.0 | 0.0 | 0.00 | 0.00 | 0.00 | 36 | |
| 20260505054409 | 55 | 72 | 0.0 | 0.0 | 0.00 | 0.00 | 0.00 | 36 | |
| 20260505054327 | 55 | 54 | 0.0 | 0.0 | 0.00 | 0.00 | 0.00 | 36 | |
| 20260505053911 | 55 | 54 | 0.0 | 0.0 | 0.00 | 0.00 | 0.00 | 36 | |
| 20260505053814 | 55 | 64 | 0.0 | 0.0 | 0.00 | 0.00 | 0.00 | 37 | |
| 20260505053409 | 55 | 64 | 0.0 | 0.0 | 0.00 | 0.00 | 0.00 | 37 | |
| 20260505053220 | 55 | 74 | 0.0 | 0.0 | 0.00 | 0.00 | 0.00 | 37 | |
| 20260505052909 | 55 | 74 | 0.0 | 0.0 | 0.00 | 0.00 | 0.00 | 37 | |
| 20260505052756 | 55 | 104 | 0.0 | 0.0 | 0.00 | 0.00 | 0.00 | 38 | |
| 20260505052410 | 55 | 104 | 0.0 | 0.0 | 0.00 | 0.00 | 0.00 | 38 | |
| 20260505052214 | 55 | 112 | 0.0 | 0.0 | 0.00 | 0.00 | 0.00 | 39 | |
| 20260505051909 | 55 | 112 | 0.0 | 0.0 | 0.00 | 0.00 | 0.00 | 39 | |
| 20260505051755 | 54 | 124 | 0.0 | 0.0 | 0.00 | 0.00 | 0.00 | 39 | |
| 20260505051409 | 54 | 124 | 0.0 | 0.0 | 0.00 | 0.00 | 0.00 | 39 | |
| 20260505051243 | 54 | 80 | 0.0 | 0.0 | 0.00 | 0.00 | 0.00 | 38 | |
| 20260505050909 | 54 | 80 | 0.0 | 0.0 | 0.00 | 0.00 | 0.00 | 38 | |
| 20260505050633 | 54 | 68 | 0.0 | 0.0 | 0.00 | 0.00 | 0.00 | 38 | |
| 20260505050409 | 54 | 68 | 0.0 | 0.0 | 0.00 | 0.00 | 0.00 | 38 | |
| 20260505050135 | 54 | 129 | 0.0 | 0.0 | 0.00 | 0.00 | 0.00 | 41 | |
| 20260505041255 | 53 | 26 | 0.0 | 0.0 | 0.00 | 0.00 | 0.00 | 37 | |
| 20260505040909 | 53 | 26 | 0.0 | 0.0 | 0.00 | 0.00 | 0.00 | 37 | |
| 20260505040655 | 54 | 43 | 0.0 | 0.0 | 0.00 | 0.00 | 0.00 | 37 | |
| 20260505040409 | 54 | 43 | 0.0 | 0.0 | 0.00 | 0.00 | 0.00 | 37 | |
| 20260505040215 | 54 | 45 | 0.0 | 0.0 | 0.00 | 0.00 | 0.00 | 37 | |
| 20260505035909 | 54 | 45 | 0.0 | 0.0 | 0.00 | 0.00 | 0.00 | 37 | |
| 20260505035807 | 54 | 46 | 0.0 | 0.0 | 0.00 | 0.00 | 0.00 | 38 | |
| 20260505035409 | 54 | 46 | 0.0 | 0.0 | 0.00 | 0.00 | 0.00 | 38 | |
| 20260505035318 | 54 | 49 | 0.0 | 0.0 | 0.00 | 0.00 | 0.00 | 38 | |
| 20260505034909 | 54 | 49 | 0.0 | 0.0 | 0.00 | 0.00 | 0.00 | 38 | |
| 20260505034705 | 54 | 58 | 0.0 | 0.0 | 0.00 | 0.00 | 0.00 | 38 | |
| 20260505034409 | 54 | 58 | 0.0 | 0.0 | 0.00 | 0.00 | 0.00 | 38 | |
| 20260505033911 | 54 | 66 | 0.0 | 0.0 | 0.00 | 0.00 | 0.00 | 41 | |
| 20260505033755 | 54 | 67 | 0.0 | 3.0 | 0.00 | 0.00 | 0.00 | 43 | |
| 20260505033409 | 54 | 67 | 0.0 | 3.0 | 0.00 | 0.00 | 0.00 | 43 | |
| 20260505033255 | 54 | 53 | 0.0 | 4.0 | 0.00 | 0.00 | 0.00 | 41 | |
| 20260505032909 | 54 | 53 | 0.0 | 4.0 | 0.00 | 0.00 | 0.00 | 41 | |
| 20260505032313 | 54 | 62 | 0.0 | 4.0 | 0.00 | 0.00 | 0.00 | 42 | |
| 20260505031909 | 54 | 62 | 0.0 | 4.0 | 0.00 | 0.00 | 0.00 | 42 | |
| 20260505031755 | 54 | 42 | 0.0 | 0.0 | 0.00 | 0.00 | 0.00 | 39 | |
| 20260505031409 | 54 | 42 | 0.0 | 0.0 | 0.00 | 0.00 | 0.00 | 39 | |
| 20260505031316 | 55 | 29 | 0.0 | 0.0 | 0.00 | 0.00 | 0.00 | 37 | |
| 20260505030909 | 55 | 29 | 0.0 | 0.0 | 0.00 | 0.00 | 0.00 | 37 | |
| 20260505030823 | 55 | 31 | 0.0 | 0.0 | 0.00 | 0.00 | 0.00 | 37 | |
| 20260505030409 | 55 | 31 | 0.0 | 0.0 | 0.00 | 0.00 | 0.00 | 37 | |
| 20260505025910 | 55 | 31 | 0.0 | 0.0 | 0.00 | 0.00 | 0.00 | 37 | |
| 20260505025409 | 55 | 25 | 0.0 | 0.0 | 0.00 | 0.00 | 0.00 | 36 | |
| 20260505024909 | 55 | 20 | 0.0 | 0.0 | 0.00 | 0.00 | 0.00 | 36 | |
| 20260505024536 | 55 | 36 | 0.0 | 0.0 | 0.00 | 0.00 | 0.00 | 38 | |
| 20260505024410 | 55 | 36 | 0.0 | 0.0 | 0.00 | 0.00 | 0.00 | 38 | |
| 20260505023954 | 55 | 45 | 0.0 | 0.0 | 0.00 | 0.00 | 0.00 | 37 | |
| 20260505023909 | 55 | 45 | 0.0 | 0.0 | 0.00 | 0.00 | 0.00 | 37 | |
| 20260505023409 | 55 | 28 | 0.0 | 0.0 | 0.00 | 0.00 | 0.00 | 37 | |
| 20260505022909 | 55 | 36 | 0.0 | 0.0 | 0.00 | 0.00 | 0.00 | 38 | |
| 20260505022410 | 55 | 40 | 0.0 | 0.0 | 0.00 | 0.00 | 0.00 | 39 | |
| 20260505021909 | 55 | 41 | 0.0 | 0.0 | 0.00 | 0.00 | 0.00 | 40 | |
| 20260505021409 | 55 | 30 | 0.0 | 0.0 | 0.00 | 0.00 | 0.00 | 38 | |
| 20260505020909 | 55 | 35 | 0.0 | 0.0 | 0.00 | 0.00 | 0.00 | 39 | |
| 20260505020409 | 56 | 68 | 0.0 | 0.0 | 0.00 | 0.00 | 0.00 | 40 | |
| 20260505015909 | 56 | 100 | 0.0 | 0.0 | 0.00 | 0.00 | 0.00 | 40 | |
| 20260505015409 | 56 | 86 | 0.0 | 0.0 | 0.00 | 0.00 | 0.00 | 39 | |
| 20260505014909 | 56 | 54 | 0.0 | 0.0 | 0.00 | 0.00 | 0.00 | 40 | |
| 20260505014409 | 56 | 54 | 0.0 | 0.0 | 0.00 | 0.00 | 0.00 | 41 | |
| 20260505013909 | 56 | 52 | 0.0 | 0.0 | 0.00 | 0.00 | 0.00 | 40 | |
| 20260505013409 | 56 | 49 | 0.0 | 0.0 | 0.00 | 0.00 | 0.00 | 39 | |
| 20260505012909 | 56 | 46 | 0.0 | 0.0 | 0.00 | 0.00 | 0.00 | 39 | |
| 20260505012409 | 56 | 45 | 0.0 | 0.0 | 0.00 | 0.00 | 0.00 | 38 | |
| 20260505011909 | 56 | 40 | 0.0 | 0.0 | 0.00 | 0.00 | 0.00 | 37 | |
| 20260505011409 | 56 | 34 | 0.0 | 0.0 | 0.00 | 0.00 | 0.00 | 37 | |
| 20260505010909 | 56 | 41 | 0.0 | 4.0 | 0.00 | 0.00 | 0.00 | 41 | |
| 20260505010409 | 56 | 42 | 0.0 | 4.0 | 0.00 | 0.00 | 0.00 | 39 | |
| 20260505005909 | 56 | 27 | 0.0 | 4.0 | 0.00 | 0.00 | 0.00 | 36 | |
| 20260505005409 | 57 | 34 | 0.0 | 4.0 | 0.00 | 0.00 | 0.00 | 39 | |
| 20260505004909 | 58 | 18 | 0.0 | 0.0 | 0.00 | 0.00 | 0.00 | 36 | |
| 20260505004409 | 59 | 5 | 0.0 | 0.0 | 0.00 | 0.00 | 0.00 | 38 | |
| 20260505003909 | 60 | 20 | 0.0 | 0.0 | 0.00 | 0.00 | 0.00 | 40 | |
| 20260505003409 | 61 | 4 | 0.0 | 0.0 | 0.00 | 0.00 | 0.00 | 39 | |
| 20260505002909 | 62 | 38 | 0.0 | 0.0 | 0.00 | 0.00 | 0.00 | 38 | |
| 20260505002409 | 63 | 31 | 0.0 | 0.0 | 0.00 | 0.00 | 0.00 | 37 | |
| 20260505001909 | 64 | 8 | 0.0 | 0.0 | 0.00 | 0.00 | 0.00 | 35 | |
| 20260505001409 | 65 | 4 | 0.0 | 0.0 | 0.00 | 0.00 | 0.00 | 33 | |
| 20260505000909 | 67 | 358 | 0.0 | 0.0 | 0.00 | 0.00 | 0.00 | 32 | |
| 20260505000409 | 67 | 350 | 0.0 | 5.0 | 0.00 | 0.00 | 0.00 | 32 | |
| 20260504235909 | 68 | 358 | 0.0 | 11.0 | 0.00 | 0.00 | 0.00 | 32 | |
| 20260504235409 | 70 | 1 | 3.0 | 11.0 | 0.00 | 0.00 | 0.00 | 29 | |
| 20260504234909 | 71 | 350 | 3.0 | 10.0 | 0.00 | 0.00 | 0.00 | 27 | |
| 20260504234409 | 72 | 311 | 6.0 | 16.0 | 0.00 | 0.00 | 0.00 | 27 | |
| 20260504233909 | 72 | 282 | 8.0 | 18.0 | 0.00 | 0.00 | 0.00 | 27 | |
| 20260504233409 | 73 | 281 | 10.0 | 18.0 | 0.00 | 0.00 | 0.00 | 27 | |
| 20260504232909 | 74 | 286 | 10.0 | 18.0 | 0.00 | 0.00 | 0.00 | 26 | |
| 20260504232409 | 74 | 282 | 9.0 | 20.0 | 0.00 | 0.00 | 0.00 | 25 | |
| 20260504231909 | 74 | 273 | 12.0 | 20.0 | 0.00 | 0.00 | 0.00 | 26 | |
| 20260504231410 | 75 | 273 | 9.0 | 20.0 | 0.00 | 0.00 | 0.00 | 26 | |
| 20260504230909 | 75 | 266 | 10.0 | 20.0 | 0.00 | 0.00 | 0.00 | 25 | |
| 20260504230409 | 76 | 275 | 10.0 | 20.0 | 0.00 | 0.00 | 0.00 | 25 | |
| 20260504225909 | 77 | 277 | 8.0 | 16.0 | 0.00 | 0.00 | 0.00 | 25 | |
| 20260504225409 | 77 | 274 | 9.0 | 15.0 | 0.00 | 0.00 | 0.00 | 25 | |
| 20260504224909 | 77 | 305 | 6.0 | 15.0 | 0.00 | 0.00 | 0.00 | 24 | |
| 20260504224409 | 78 | 283 | 8.0 | 15.0 | 0.00 | 0.00 | 0.00 | 25 | |
| 20260504223909 | 78 | 278 | 7.0 | 18.0 | 0.00 | 0.00 | 0.00 | 25 | |
| 20260504223756 | 78 | 277 | 8.0 | 22.0 | 0.00 | 0.00 | 0.00 | 26 | |
| 20260504223409 | 78 | 277 | 8.0 | 22.0 | 0.00 | 0.00 | 0.00 | 26 | |
| 20260504223326 | 79 | 286 | 7.0 | 22.0 | 0.00 | 0.00 | 0.00 | 25 | |
| 20260504222909 | 79 | 286 | 7.0 | 22.0 | 0.00 | 0.00 | 0.00 | 25 | |
| 20260504222826 | 79 | 283 | 8.0 | 20.0 | 0.00 | 0.00 | 0.00 | 25 | |
| 20260504222415 | 79 | 262 | 12.0 | 20.0 | 0.00 | 0.00 | 0.00 | 26 | |
| 20260504222409 | 79 | 283 | 8.0 | 20.0 | 0.00 | 0.00 | 0.00 | 25 | |
| 20260504221910 | 80 | 286 | 6.0 | 13.0 | 0.00 | 0.00 | 0.00 | 25 | |
| 20260504221409 | 80 | 286 | 6.0 | 13.0 | 0.00 | 0.00 | 0.00 | 25 | |
| 20260504221326 | 80 | 269 | 8.0 | 15.0 | 0.00 | 0.00 | 0.00 | 26 | |
| 20260504220910 | 81 | 268 | 9.0 | 20.0 | 0.00 | 0.00 | 0.00 | 27 | |
| 20260504220409 | 81 | 268 | 9.0 | 20.0 | 0.00 | 0.00 | 0.00 | 27 | |
| 20260504220359 | 81 | 252 | 11.0 | 20.0 | 0.00 | 0.00 | 0.00 | 27 | |
| 20260504215926 | 81 | 240 | 11.0 | 20.0 | 0.00 | 0.00 | 0.00 | 28 | |
| 20260504215909 | 81 | 252 | 11.0 | 20.0 | 0.00 | 0.00 | 0.00 | 27 | |
| 20260504215429 | 82 | 254 | 10.0 | 16.0 | 0.00 | 0.00 | 0.00 | 28 | |
| 20260504215409 | 81 | 240 | 11.0 | 20.0 | 0.00 | 0.00 | 0.00 | 28 | |
| 20260504215021 | 82 | 248 | 10.0 | 15.0 | 0.00 | 0.00 | 0.00 | 28 | |
| 20260504214909 | 82 | 254 | 10.0 | 16.0 | 0.00 | 0.00 | 0.00 | 28 | |
| 20260504214409 | 82 | 248 | 10.0 | 15.0 | 0.00 | 0.00 | 0.00 | 28 | |
| 20260504213947 | 82 | 275 | 8.0 | 16.0 | 0.00 | 0.00 | 0.00 | 27 | |
| 20260504213909 | 82 | 266 | 8.0 | 14.0 | 0.00 | 0.00 | 0.00 | 27 | |
| 20260504213421 | 83 | 270 | 9.0 | 16.0 | 0.00 | 0.00 | 0.00 | 28 | |
| 20260504213410 | 82 | 275 | 8.0 | 16.0 | 0.00 | 0.00 | 0.00 | 27 | |
| 20260504212923 | 83 | 267 | 7.0 | 12.0 | 0.00 | 0.00 | 0.00 | 28 | |
| 20260504212909 | 83 | 270 | 9.0 | 16.0 | 0.00 | 0.00 | 0.00 | 28 | |
| 20260504212255 | 83 | 271 | 3.0 | 10.0 | 0.00 | 0.00 | 0.00 | 28 | |
| 20260504211924 | 82 | 270 | 3.0 | 8.0 | 0.00 | 0.00 | 0.00 | 28 | |
| 20260504211909 | 83 | 271 | 3.0 | 10.0 | 0.00 | 0.00 | 0.00 | 28 | |
| 20260504211410 | 82 | 270 | 3.0 | 8.0 | 0.00 | 0.00 | 0.00 | 28 | |
| 20260504211407 | 82 | 270 | 6.0 | 13.0 | 0.00 | 0.00 | 0.00 | 28 | |
| 20260504211121 | 82 | 264 | 7.0 | 13.0 | 0.00 | 0.00 | 0.00 | 29 | |
| 20260504210910 | 82 | 270 | 6.0 | 13.0 | 0.00 | 0.00 | 0.00 | 28 | |
| 20260504210419 | 82 | 262 | 8.0 | 13.0 | 0.00 | 0.00 | 0.00 | 29 | |
| 20260504210410 | 82 | 264 | 7.0 | 13.0 | 0.00 | 0.00 | 0.00 | 29 | |
| 20260504205909 | 82 | 262 | 8.0 | 13.0 | 0.00 | 0.00 | 0.00 | 29 | |
| 20260504205724 | 83 | 273 | 6.0 | 11.0 | 0.00 | 0.00 | 0.00 | 28 | |
| 20260504204909 | 83 | 273 | 6.0 | 11.0 | 0.00 | 0.00 | 0.00 | 28 | |
| 20260504204549 | 83 | 277 | 4.0 | 11.0 | 0.00 | 0.00 | 0.00 | 27 | |
| 20260504204409 | 83 | 277 | 4.0 | 11.0 | 0.00 | 0.00 | 0.00 | 27 | |
| 20260504203912 | 83 | 257 | 4.0 | 11.0 | 0.00 | 0.00 | 0.00 | 27 | |
| 20260504203410 | 83 | 276 | 3.0 | 8.0 | 0.00 | 0.00 | 0.00 | 27 | |
| 20260504202909 | 83 | 300 | 3.0 | 10.0 | 0.00 | 0.00 | 0.00 | 27 | |
| 20260504202410 | 84 | 266 | 5.0 | 10.0 | 0.00 | 0.00 | 0.00 | 29 | |
| 20260504201911 | 84 | 312 | 4.0 | 10.0 | 0.00 | 0.00 | 0.00 | 27 | |
| 20260504201409 | 84 | 292 | 5.0 | 9.0 | 0.00 | 0.00 | 0.00 | 28 | |
| 20260504200909 | 83 | 277 | 5.0 | 9.0 | 0.00 | 0.00 | 0.00 | 28 | |
| 20260504200410 | 83 | 275 | 4.0 | 10.0 | 0.00 | 0.00 | 0.00 | 29 | |
| 20260504200007 | 83 | 253 | 5.0 | 10.0 | 0.00 | 0.00 | 0.00 | 29 | |
| 20260504195909 | 83 | 253 | 5.0 | 10.0 | 0.00 | 0.00 | 0.00 | 29 | |
| 20260504195409 | 83 | 229 | 5.0 | 10.0 | 0.00 | 0.00 | 0.00 | 29 | |
| 20260504194909 | 83 | 240 | 6.0 | 10.0 | 0.00 | 0.00 | 0.00 | 29 | |
| 20260504194409 | 83 | 265 | 5.0 | 10.0 | 0.00 | 0.00 | 0.00 | 29 | |
| 20260504193910 | 83 | 246 | 6.0 | 10.0 | 0.00 | 0.00 | 0.00 | 30 | |
| 20260504193409 | 83 | 240 | 7.0 | 10.0 | 0.00 | 0.00 | 0.00 | 31 | |
| 20260504192909 | 83 | 257 | 5.0 | 8.0 | 0.00 | 0.00 | 0.00 | 30 | |
| 20260504192500 | 84 | 260 | 5.0 | 8.0 | 0.00 | 0.00 | 0.00 | 30 | |
| 20260504192457 | 84 | 257 | 4.0 | 7.0 | 0.00 | 0.00 | 0.00 | 30 | |
| 20260504192409 | 84 | 260 | 5.0 | 8.0 | 0.00 | 0.00 | 0.00 | 30 | |
| 20260504191909 | 84 | 257 | 4.0 | 7.0 | 0.00 | 0.00 | 0.00 | 30 | |
| 20260504191409 | 83 | 264 | 4.0 | 7.0 | 0.00 | 0.00 | 0.00 | 29 | |
| 20260504191101 | 82 | 315 | 1.0 | 5.0 | 0.00 | 0.00 | 0.00 | 27 | |
| 20260504191059 | 82 | 9 | 2.0 | 6.0 | 0.00 | 0.00 | 0.00 | 27 | |
| 20260504190909 | 82 | 315 | 1.0 | 5.0 | 0.00 | 0.00 | 0.00 | 27 | |
| 20260504190409 | 82 | 9 | 2.0 | 6.0 | 0.00 | 0.00 | 0.00 | 27 | |
| 20260504185909 | 82 | 44 | 2.0 | 6.0 | 0.00 | 0.00 | 0.00 | 27 | |
| 20260504185409 | 82 | 268 | 2.0 | 6.0 | 0.00 | 0.00 | 0.00 | 29 | |
| 20260504184909 | 81 | 264 | 3.0 | 7.0 | 0.00 | 0.00 | 0.00 | 30 | |
| 20260504184409 | 80 | 262 | 4.0 | 11.0 | 0.00 | 0.00 | 0.00 | 31 | |
| 20260504183909 | 79 | 246 | 5.0 | 11.0 | 0.00 | 0.00 | 0.00 | 31 | |
| 20260504183410 | 79 | 254 | 5.0 | 12.0 | 0.00 | 0.00 | 0.00 | 30 | |
| 20260504182909 | 79 | 245 | 7.0 | 12.0 | 0.00 | 0.00 | 0.00 | 31 | |
| 20260504182409 | 78 | 246 | 7.0 | 12.0 | 0.00 | 0.00 | 0.00 | 31 | |
| 20260504181909 | 78 | 249 | 8.0 | 13.0 | 0.00 | 0.00 | 0.00 | 31 | |
| 20260504181409 | 79 | 237 | 8.0 | 13.0 | 0.00 | 0.00 | 0.00 | 31 | |
| 20260504180911 | 79 | 238 | 8.0 | 12.0 | 0.00 | 0.00 | 0.00 | 31 | |
| 20260504180411 | 79 | 235 | 7.0 | 12.0 | 0.00 | 0.00 | 0.00 | 31 | |
| 20260504175911 | 79 | 252 | 6.0 | 11.0 | 0.00 | 0.00 | 0.00 | 31 | |
| 20260504175410 | 78 | 252 | 7.0 | 11.0 | 0.00 | 0.00 | 0.00 | 31 | |
| 20260504174910 | 78 | 268 | 6.0 | 13.0 | 0.00 | 0.00 | 0.00 | 30 | |
| 20260504174410 | 77 | 251 | 7.0 | 14.0 | 0.00 | 0.00 | 0.00 | 31 | |
| 20260504173909 | 77 | 256 | 9.0 | 14.0 | 0.00 | 0.00 | 0.00 | 31 | |
| 20260504173409 | 77 | 246 | 7.0 | 12.0 | 0.00 | 0.00 | 0.00 | 32 | |
| 20260504172909 | 77 | 257 | 8.0 | 15.0 | 0.00 | 0.00 | 0.00 | 31 | |
| 20260504172409 | 76 | 260 | 8.0 | 16.0 | 0.00 | 0.00 | 0.00 | 32 | |
| 20260504171909 | 76 | 249 | 9.0 | 16.0 | 0.00 | 0.00 | 0.00 | 32 | |
| 20260504171409 | 77 | 249 | 8.0 | 14.0 | 0.00 | 0.00 | 0.00 | 31 | |
| 20260504170909 | 77 | 255 | 9.0 | 14.0 | 0.00 | 0.00 | 0.00 | 32 | |
| 20260504170409 | 78 | 236 | 8.0 | 14.0 | 0.00 | 0.00 | 0.00 | 32 | |
| 20260504160410 | 79 | 234 | 9.0 | 14.0 | 0.00 | 0.00 | 0.00 | 32 | |
| 20260504150909 | 78 | 240 | 8.0 | 15.0 | 0.00 | 0.00 | 0.00 | 32 | |
| 20260504150719 | 78 | 238 | 7.0 | 15.0 | 0.00 | 0.00 | 0.00 | 32 | |
| 20260504150409 | 78 | 238 | 7.0 | 15.0 | 0.00 | 0.00 | 0.00 | 32 | |
| 20260504150317 | 77 | 230 | 3.0 | 8.0 | 0.00 | 0.00 | 0.00 | 32 | |
| 20260504140911 | 73 | 222 | 0.0 | 0.0 | 0.00 | 0.00 | 0.00 | 33 | |
| 20260504140635 | 73 | 225 | 0.0 | 0.0 | 0.00 | 0.00 | 0.00 | 33 | |
| 20260504140409 | 73 | 225 | 0.0 | 0.0 | 0.00 | 0.00 | 0.00 | 33 | |
| 20260504140255 | 72 | 223 | 0.0 | 0.0 | 0.00 | 0.00 | 0.00 | 33 | |
| 20260504130409 | 63 | 108 | 0.0 | 0.0 | 0.00 | 0.00 | 0.00 | 34 | |
| 20260504130314 | 63 | 328 | 0.0 | 0.0 | 0.00 | 0.00 | 0.00 | 33 |